www.pogodaiklimat.ru

Погода и климат >> Архив погоды >> Австралия >> Южная Австралия >> Однадатта


ПОГОДА в Однадатте

  • Прогноз погоды в Однадатте
  • Монитор погоды в Однадатте

АРХИВ ПОГОДЫ в Однадатте

Время (UTC), дата Ветер
(напр.,м/с)
 
Видим.   Явления Облачность Т
(С)
Тd
(С)
f
(%)
Тe
(С)
Тes
(С)
Комфортность P
(гПа)
Po
(гПа)
Тmin
(С)
Tmax
(С)
R
(мм)
R24
(мм)
S
(см)
01 17.03 ЮЗ 2 н/о н/о +32.2 -2.0 11 +29 +29 жарко 1014.7 1001.3 +16.8
02 17.03 Ю 3 н/о н/о +33.0 -2.6 10 +29 +29 жарко 1013.9 1000.5
04 17.03 ЮЗ 6 н/о н/о +34.7 -2.8 9 +31 +31 жарко 1012.5 999.2
05 17.03 Ю 6 н/о н/о +35.3 -3.9 8 +31 +31 жарко 1011.6 998.3
07 17.03 ЮВ 7 н/о н/о +35.5 -3.8 8 +31 +31 жарко 1011.1 997.8
08 17.03 Ю 5 н/о н/о +35.2 -4.0 8 +31 +31 жарко 1011.3 998.0
10 17.03 ЮВ 6 н/о н/о +32.5 -4.4 9 +29 +29 жарко 1012.6 999.3
11 17.03 ЮВ 5 н/о н/о +31.2 -4.0 10 +28 +28 жарко 1013.2 999.9
13 17.03 В 4 н/о н/о +28.2 -1.8 14 +25 +25 комфорт 1013.7 1000.3 +37.3
14 17.03 В 3 н/о н/о +25.9 -1.8 16 +24 +24 комфорт 1013.5 1000.1
16 17.03 З 3 н/о н/о +22.5 -3.0 18 +21 +21 комфорт 1012.9 999.6
17 17.03 штиль 0 н/о н/о +23.2 -1.7 19 +22 +22 комфорт 1012.7 999.4
19 17.03 штиль 0 н/о н/о +21.8 -2.1 20 +21 +21 комфорт 1012.7 999.4
20 17.03 штиль 0 н/о н/о +20.4 -2.6 21 +20 +20 1012.9 999.6
22 17.03 штиль 0 н/о н/о +22.3 -2.4 19 +21 +21 комфорт 1013.9 1000.5
23 17.03 Ю 2 н/о н/о +26.5 -0.5 17 +24 +24 комфорт 1014.4 1001.0
01 18.03 Ю 4 н/о н/о +33.3 +0.1 12 +30 +30 жарко 1014.3 1000.9 +19.6
02 18.03 В 3 н/о н/о +34.7 -0.1 11 +31 +31 жарко 1013.7 1000.3
04 18.03 ЮВ 3 н/о н/о +36.9 +0.3 10 +33 +33 жарко 1011.6 998.3
05 18.03 Ю 6 н/о н/о +36.3 -0.2 10 +33 +33 жарко 1010.5 997.2
07 18.03 Ю 7 н/о н/о +36.8 +0.2 10 +33 +33 жарко 1009.6 996.3
08 18.03 ЮВ 8 н/о н/о +36.4 +1.2 11 +33 +33 жарко 1009.8 996.5
10 18.03 ЮВ 5 н/о н/о +33.1 +2.1 14 +30 +30 жарко 1010.9 997.6
11 18.03 В 5 н/о н/о +31.4 +1.7 15 +29 +29 жарко 1011.8 998.5
13 18.03 В 3 н/о н/о +28.8 +2.9 19 +27 +27 жарко 1012.3 999.0 +38.8
14 18.03 В 3 н/о н/о +27.0 +2.1 20 +25 +25 комфорт 1011.9 998.6
16 18.03 В 2 н/о н/о +24.4 0.0 20 +23 +23 комфорт 1011.2 997.9
17 18.03 штиль 0 н/о н/о +23.9 +0.9 22 +23 +23 комфорт 1011.1 997.8
19 18.03 Ю 5 н/о н/о +25.0 +4.2 26 +24 +24 комфорт 1011.7 998.4
20 18.03 Ю 4 н/о н/о +23.9 +4.3 28 +24 +24 комфорт 1012.1 998.8
22 18.03 Ю 3 н/о н/о +23.9 +4.8 29 +24 +24 комфорт 1013.1 999.8
23 18.03 Ю 3 н/о н/о +27.0 +6.4 27 +26 +26 жарко 1013.7 1000.3
01 19.03 ЮВ 5 н/о н/о +33.2 +6.5 19 +31 +31 жарко 1013.6 1000.2 +22.5
02 19.03 Ю 3 н/о н/о +35.2 +5.6 16 +33 +33 жарко 1012.8 999.5
04 19.03 Ю 5 н/о н/о +37.8 +3.5 12 +35 +35 очень
жарко
1010.8 997.5
05 19.03 Ю 5 н/о н/о +37.8 +3.5 12 +35 +35 очень
жарко
1009.9 996.6
07 19.03 Ю 9 н/о н/о +38.9 +4.4 12 +36 +36 очень
жарко
1009.1 995.8
08 19.03 Ю 6 н/о н/о +37.9 +4.7 13 +35 +35 очень
жарко
1009.2 995.9
10 19.03 Ю 7 н/о н/о +34.9 +6.2 17 +33 +33 жарко 1010.6 997.3
11 19.03 Ю 6 н/о н/о +33.6 +6.0 18 +31 +31 жарко 1011.4 998.1
13 19.03 ЮВ 6 н/о н/о +31.3 +7.1 22 +30 +30 жарко 1012.2 998.9 +39.5
14 19.03 ЮВ 5 н/о н/о +29.9 +6.5 23 +29 +29 жарко 1012.1 998.8
16 19.03 ЮВ 3 н/о н/о +27.1 +6.5 27 +26 +26 жарко 1011.7 998.4
17 19.03 Ю 3 н/о н/о +25.7 +5.8 28 +25 +25 комфорт 1011.5 998.2
19 19.03 Ю 3 н/о н/о +24.9 +6.6 31 +25 +25 комфорт 1011.4 998.1
20 19.03 Ю 3 н/о н/о +23.7 +6.0 32 +24 +24 комфорт 1011.8 998.5
22 19.03 Ю 3 н/о н/о +24.6 +6.4 31 +25 +25 комфорт 1013.2 999.9
23 19.03 ЮВ 4 н/о н/о +28.7 +7.9 27 +28 +28 жарко 1013.7 1000.3
01 20.03 ЮВ 6 н/о н/о +34.7 +8.4 20 +33 +33 жарко 1013.7 1000.3 +22.3
02 20.03 ЮВ 6 н/о н/о +36.0 +8.0 18 +34 +34 очень
жарко
1012.9 999.6
04 20.03 ЮЗ 3 н/о н/о +36.4 +6.6 16 +34 +34 очень
жарко
1010.9 997.6
05 20.03 Ю 6 н/о н/о +37.4 +6.4 15 +35 +35 очень
жарко
1009.9 996.6
07 20.03 ЮВ 7 н/о н/о +38.2 +7.0 15 +36 +36 очень
жарко
1009.5 996.2
08 20.03 Ю 5 н/о н/о +37.7 +6.6 15 +35 +35 очень
жарко
1009.7 996.4
10 20.03 Ю 6 н/о н/о +35.0 +7.1 18 +33 +33 жарко 1010.5 997.2
11 20.03 Ю 5 н/о н/о +33.6 +7.6 20 +32 +32 жарко 1011.3 998.0
13 20.03 Ю 5 н/о н/о +31.4 +7.8 23 +30 +30 жарко 1012.2 998.9 +39.5
14 20.03 Ю 5 н/о н/о +30.2 +7.4 24 +29 +29 жарко 1012.1 998.8
16 20.03 ЮВ 4 н/о н/о +27.2 +7.1 28 +27 +27 жарко 1011.3 998.0
17 20.03 ЮЗ 2 н/о н/о +25.6 +7.2 31 +26 +26 жарко 1011.1 997.8
19 20.03 ЮВ 3 н/о н/о +24.7 +5.5 29 +24 +24 комфорт 1011.0 997.7
20 20.03 ЮВ 3 н/о н/о +23.9 +5.8 31 +24 +24 комфорт 1011.1 997.8
22 20.03 Ю 3 н/о н/о +23.7 +5.1 30 +24 +24 комфорт 1012.3 999.0
23 20.03 Ю 4 н/о н/о +27.6 +5.8 25 +27 +27 жарко 1012.8 999.5
01 21.03 ЮВ 4 н/о н/о +33.4 +5.0 17 +31 +31 жарко 1012.9 999.6 +22.7
02 21.03 ЮВ 5 н/о н/о +35.6 +6.8 17 +33 +33 жарко 1012.2 998.9
04 21.03 ЮЗ 4 н/о н/о +36.3 +6.5 16 +34 +34 очень
жарко
1010.3 997.0
05 21.03 ЮВ 6 н/о н/о +37.0 +7.0 16 +35 +35 очень
жарко
1009.4 996.1
07 21.03 Ю 7 н/о н/о +37.4 +6.4 15 +35 +35 очень
жарко
1008.7 995.4
08 21.03 Ю 7 н/о н/о +37.2 +6.3 15 +35 +35 очень
жарко
1009.0 995.7
10 21.03 ЮВ 5 н/о н/о +34.3 +6.6 18 +32 +32 жарко 1010.5 997.2
11 21.03 ЮВ 4 н/о н/о +32.3 +5.7 19 +30 +30 жарко 1011.2 997.9
13 21.03 ЮВ 4 н/о н/о +30.1 +4.7 20 +28 +28 жарко 1011.0 997.7 +38.5
14 21.03 Ю 3 н/о н/о +28.3 +3.2 20 +27 +27 жарко 1010.8 997.5
16 21.03 Ю 1 н/о н/о +25.9 +0.5 19 +24 +24 комфорт 1010.1 996.8
17 21.03 Ю 4 н/о н/о +24.2 +0.5 21 +23 +23 комфорт 1010.2 996.9
22 21.03 Ю 2 н/о н/о +23.1 -0.4 21 +22 +22 комфорт 1010.5 997.2
23 21.03 В 3 н/о н/о +27.8 +4.2 22 +26 +26 жарко 1010.5 997.2
01 22.03 В 3 н/о н/о +34.8 +4.4 15 +32 +32 жарко 1010.9 997.6 +21.3
02 22.03 С 3 н/о н/о +35.5 +3.9 14 +33 +33 жарко 1010.1 996.8
04 22.03 ЮВ 4 н/о н/о +38.6 +4.1 12 +36 +36 очень
жарко
1008.0 994.7
05 22.03 ЮВ 2 н/о н/о +38.7 +4.2 12 +36 +36 очень
жарко
1006.9 993.6
07 22.03 ЮВ 5 н/о н/о +38.4 +4.0 12 +35 +35 очень
жарко
1006.2 992.9
08 22.03 ЮВ 3 н/о н/о +38.4 +4.0 12 +35 +35 очень
жарко
1006.3 993.0
10 22.03 ЮВ 4 н/о н/о +34.7 +4.3 15 +32 +32 жарко 1007.3 994.0
11 22.03 ЮВ 3 н/о н/о +32.7 +4.5 17 +30 +30 жарко 1008.2 994.9
13 22.03 В 5 н/о н/о +30.2 +4.8 20 +28 +28 жарко 1008.6 995.3 +40.4
14 22.03 В 4 н/о н/о +29.4 +4.8 21 +28 +28 жарко 1008.3 995.0
16 22.03 В 3 н/о н/о +27.6 +4.6 23 +26 +26 жарко 1007.5 994.2
17 22.03 В 5 н/о н/о +27.4 +4.5 23 +26 +26 жарко 1007.1 993.8
19 22.03 В 4 н/о н/о +27.0 +4.1 23 +26 +26 жарко 1007.2 993.9
20 22.03 В 6 н/о н/о +27.7 +4.7 23 +26 +26 жарко 1007.4 994.1
22 22.03 В 7 н/о н/о +29.9 +5.9 22 +28 +28 жарко 1008.0 994.7
23 22.03 СВ 9 н/о н/о +32.9 +4.6 17 +30 +30 жарко 1008.0 994.7
01 23.03 СВ 9 н/о н/о +37.3 +8.2 17 +35 +35 очень
жарко
1008.0 994.7 +26.0
02 23.03 С 8 н/о н/о +38.4 +9.9 18 +37 +37 очень
жарко
1007.8 994.5
04 23.03 С 6 н/о н/о +40.1 +7.5 14 +38 +38 очень
жарко
1006.0 992.7
05 23.03 СВ 3 н/о н/о +41.2 +7.3 13 +39 +39 очень
жарко
1005.0 991.8
07 23.03 В 8 н/о туман местами н/о +39.4 +10.7 18 +38 +38 очень
жарко
1004.1 990.9
08 23.03 ЮЗ 10 н/о н/о +30.5 +18.6 49 +35 +35 очень
душно
1005.5 992.3
10 23.03 В 6 н/о {туман} н/о +32.6 +15.6 36 +35 +35 душно 1006.1 992.8 2
11 23.03 В 5 н/о н/о +30.7 +16.3 42 +34 +34 очень
душно
1006.4 993.1
13 23.03 Ю 4 н/о {туман} н/о +29.2 +18.9 54 +35 +35 очень
душно
1008.4 995.1 +42.3
14 23.03 ЮВ 12 н/о н/о +28.3 +14.2 42 +30 +30 жарко 1008.2 994.9
16 23.03 ЮВ 9 н/о {туман} н/о +27.1 +12.7 41 +29 +29 жарко 1008.8 995.5 0.2
17 23.03 ЮВ 9 н/о н/о +26.8 +12.8 42 +28 +28 жарко 1007.7 994.4
19 23.03 ЮВ 7 н/о н/о +25.8 +12.6 44 +28 +28 жарко 1007.6 994.3
20 23.03 ЮВ 8 н/о н/о +25.6 +13.1 46 +28 +28 жарко 1008.0 994.7
22 23.03 В 7 н/о н/о +25.7 +13.9 48 +28 +28 жарко 1009.1 995.8 2
23 23.03 В 8 н/о н/о +27.4 +13.7 43 +29 +29 жарко 1009.3 996.0

 

Местоположение метеостанции Однадатта (Южная Австралия, Австралия): широта -27.55 долгота 135.45 высота над уровнем моря 117 м.

В архиве по умолчанию представлена погода в Однадатте за последнюю неделю. Архивные данные за месяц целиком и за предыдущие месяцы, начиная с января 2011 года, Вы можете получить, выбрав интересующий диапазон дат из раскрывающегося списка и нажав кнопку "Ввод!".


*Определитесь, кто Вы:
робот инопланетянин человек

Внимание! Время в таблицах - всемирное. Для получения местного времени необходимо прибавить поправку, которая равна 9.5 ч.

Смотрите также архив погоды в соседних городах и на ближайших метеорологических станциях:

Погода в Кубер-Педи (Южная Австралия, Австралия) (180 км)
Погода в Марри (Южная Австралия, Австралия) (346 км)
Погода в Эрнабелле (Южная Австралия, Австралия) (354 км)
Погода в Олимпик Дэм (Южная Австралия, Австралия) (354 км)
Погода в Таркуле (Южная Австралия, Австралия) (363 км)
Погода на Аэродроме Вумера (Южная Австралия, Австралия) (422 км)
Погода в Бердсвилле (Квинсленд, Австралия) (429 км)
Погода в Ли-Крике (Южная Австралия, Австралия) (445 км)
Погода в Элис-Спрингсе (Северная территория, Австралия) (446 км)
Погода в Мумбе (Южная Австралия, Австралия) (471 км)

Пояснения к столбцам:

Ветер - указаны скорость ветра в м/с - средняя за 10 мин, порывы в срок и между сроками (в фигурных скобках) и направление, откуда дует ветер: С - северный, СВ - северо-восточный, В - восточный, ЮВ - юго-восточный, Ю - южный, ЮЗ - юго-западный, З - западный, СЗ - северо-западный.
Видимость - горизонтальная дальность видимости в метрах или километрах. При видимости от 1 до 10 км при отсутствии осадков обычно наблюдается дымка, при ухудшении видимости до 1 км и менее - туман. В сухую погоду видимость может ухудшаться дымом, пылью или мглою.
Явления - указаны атмосферные явления, наблюдавшиеся в срок или в последний час перед сроком; фигурными скобками обозначены явления, наблюдавшиеся между сроками (за 1-3 часа до срока); квадратными скобками обозначены град или гололедные отложения с указанием их диаметра в мм.
Облачность - указаны через наклонную черту общая и нижняя облачность в баллах и высота нижней границы облаков в метрах; квадратными скобками обозначены формы облаков: Ci - перистые, Cs - перисто-слоистые, Cc - перисто-кучевые, Ac - высококучевые, As - высокослоистые, Sc - слоисто-кучевые, Ns - слоисто-дождевые, Cu - кучевые, Cb - кучево-дождевые. Подробнее классификацию облаков см. в Атласе облаков (PDF).
T - Температура воздуха - температура, измеренная на высоте 2 м над землей.
Td - Температура точки росы - температура, при понижении до которой содержащийся в воздухе водяной пар достигнет насыщения.
f - Относительная влажность воздуха - влажноcть воздуха, измеренная на высоте 2 м над землей.
Te - Эффективная температура - температура, которую ощущает одетый по сезону человек в тени. Характеристика душности погоды. При расчете учитывается влияние влажности воздуха и скорости ветра на теплоощущения человека.
Tes - Эффективная температура на солнце - температура, которую ощущает человек, с поправкой на солнечный нагрев. Характеристика знойности погоды. Зависит от высоты солнца над горизонтом, облачности и скорости ветра. Ночью, в пасмурную погоду, а также при ветре 12 м/с и более поправка равна нулю.
P - Атмосферное давление - приведенное к уровню моря атмосферное давление.
Po - Атмосферное давление - измеренное на уровне метеостанции атмосферное давление.
Tmin - Минимальная температура - минимум температуры воздуха на высоте 2 м над землей.
Tmax - Максимальная температура - максимум температуры воздуха на высоте 2 м над землей.
R - Количество осадков - Количество выпавших осадков за период времени, мм. При наведении курсора мыши на число - период времени, за который выпало указанное количество осадков.
R24 - Количество осадков - Количество выпавших осадков за 24 часа, мм.
S - Снежный покров - Высота снежного покрова, см. При наведении курсора мыши на число - состояние снежного покрова и степень покрытия местности в баллах.